OPS 4682 DEB, 19950

Orbit data source: Space-Track

OPS 4682 DEB, 19950 is space debris in LEO originally from a launch on Sat, 03 Apr 1965 UTC launched from the Air Force Western Test Range (AFWTR). Debris objects in space refer to the collection of defunct objects orbiting the Earth. Examples of debris include non-operational satellites, rocket bodies, and fragments generated from explosions, collisions, or faulty payload assembly.

Loading next visibility...
Identifier
19950, 1965-027AY
Orbit
LEO
Country
Flag of USUS
Related business
Manufacturer
Unknown
Mission
Spacecraft
Bus & Motor
Unknown
Mass
Unknown
Launch date (UTC)
1965-04-03 (61 years ago)
Launch vehicle
Unknown
Launch site
Air Force Western Test Range (AFWTR)
Object type
Payload
Rocket body
Debris
Shape & HBR
Unknown shape, 0.1 m
Radar Cross Section
Medium (>0.1 m² and <1 m²)

Expand to show TLE details & history
Last TLE update: 3 weeks ago

TLE from 3 weeks ago
0 OPS 4682 DEB
1 19950U 65027AY  26243.78230833  .00000220  00000-0  75827-3 0  9991
2 19950  90.2487  10.9900 0029116 354.0443   6.0326 12.95027061562437
Epoch: 2026-08-31T18:46Z
TLE epoch observation values (Epoch: 2026-08-31T18:46:31.439Z)
Latitude
-0.00003°
Longitude
109.4004°
Altitude
1,262.327 km
Speed
7.235 km/s
True Right ascension
00h 43m 57s
True Declination
0° 00' 00"
Sunlit
Object was in full shadow at epoch
Visualization orbit readout
Latitude
Unknown
Longitude
Unknown
Altitude
Unknown
Speed
Unknown
Apparent Right ascension
Unknown
Apparent Declination
Unknown
Sunlit
N/A
Visualization observer readout
Local Sidereal Time
19:46:29
Azimuth
Unknown
Elevation
Unknown
Doppler factor
Unknown
Orbital elements
Apogee altitude
1,301.061 km
Perigee altitude
1,256.474 km
Semi-major axis
7,656.905 km
Eccentricity
0.00291
Inclination
90.2487°
RAAN
10.99°
Arg. of periapsis
354.0443°
True anomaly
6.06779°
Mean anomaly
6.0326°
Eccentric anomaly
6.05018°
Mean motion
3.23939 °/min
Orbital period
111.13 mins
BSTAR
0.00075827
Loading maneuver chart data...
Computing Atmospheric mass density...
Loading historical data...
Loading historical data...
Loading historical data...
Loading historical data...
Loading historical data...
Loading historical data...
Loading historical data...

Documentation

Showing up to 5 results
|